{"data":{"norad_id":63939,"epoch":"2026-09-20T08:45:54.525888Z","epoch_age_seconds":158686,"freshness":"FRESH","line1":"1 63939U 25098P   26263.36521442  .00008660  00000+0  30527-3 0  9999","line2":"2 63939  69.9991 141.1900 0003787 273.4491  86.6251 15.29586437 75770","mean_motion":15.29586437,"eccentricity":0.0003787,"inclination_deg":69.9991,"raan_deg":141.19,"arg_perigee_deg":273.4491,"mean_anomaly_deg":86.6251,"bstar":0.00030527,"rev_number":7577,"period_min":94.143094183307,"perigee_km":474.45161186788,"apogee_km":479.64372873716,"semimajor_km":6855.1846703025,"source":"CELESTRAK","updated_at":"2026-09-21T09:00:35.151543Z"}}